Theta_e
273 274 274 273 273 274 272 271 271 271 271 271 271 271 271 272 272 271 271 271 271 271 271 271 271 271 271 271 271 271 271 271 271 271 271 271 271 271 271 272 272 272
273 274 274 273 273 273 272 272 271 271 271 271 271 271 271 271 271 271 271 271 271 270 271 271 271 271 270 270 271 270 271 270 270 272 271 271 272 272 272 273 273 273
273 272 272 271 271 271 271 272 272 271 271 271 271 271 271 271 271 271 270 271 270 270 270 271 270 270 271 270 271 270 270 270 270 271 271 272 272 273 273 273 273 273
272 272 272 272 271 271 271 271 271 271 271 270 270 270 271 271 271 270 270 271 270 270 270 270 270 270 270 270 270 270 270 270 271 271 272 272 273 273 273 274 274 273
272 272 272 272 272 272 271 270 270 270 270 270 270 270 270 270 270 270 270 270 270 270 270 270 270 270 270 270 270 269 270 270 271 272 272 272 273 273 274 274 273 273
272 272 272 272 271 271 270 270 270 270 269 269 270 270 270 270 269 269 270 269 269 270 270 270 270 270 270 270 270 270 270 270 271 271 272 272 272 273 274 274 273 273
271 271 271 271 270 270 270 269 270 270 269 270 270 269 269 269 269 269 269 269 269 270 269 269 269 269 270 270 269 269 270 271 272 272 272 272 273 273 274 274 274 273
271 271 271 270 270 270 269 269 269 269 269 269 269 269 269 269 269 269 269 269 269 269 269 269 269 269 269 269 269 270 271 271 271 272 272 272 273 273 273 274 274 274
271 270 270 270 269 269 269 269 269 269 269 268 268 268 269 269 269 269 269 269 269 269 269 269 269 269 269 269 270 271 271 272 272 272 272 272 273 273 274 274 274 274
270 270 270 269 269 269 268 268 268 268 269 268 268 268 268 269 269 269 269 269 268 268 269 269 269 269 269 270 270 271 271 272 272 273 273 273 273 274 274 274 274 273
270 269 269 268 268 268 268 268 268 268 268 268 268 268 268 268 268 268 268 268 268 268 268 268 269 269 269 270 271 272 272 272 272 273 273 274 274 274 275 274 274 274
269 269 268 268 268 268 268 268 268 268 268 268 268 267 267 268 268 268 268 268 268 268 268 268 269 269 270 271 271 272 272 273 273 273 274 275 275 274 274 275 275 274
269 268 268 268 268 268 268 267 267 267 267 267 267 267 267 267 267 267 268 268 268 268 268 268 268 269 270 270 271 272 272 275 277 278 276 275 275 275 275 275 275 275
268 268 268 268 268 267 267 267 267 267 267 267 267 266 266 266 266 267 267 267 267 268 268 268 268 269 270 271 272 274 277 277 278 276 275 274 274 275 275 275 275 275
268 268 268 267 267 267 266 266 266 266 266 266 266 266 267 266 267 267 266 267 267 267 267 268 268 269 270 271 276 277 278 278 277 275 274 274 274 275 275 275 275 276
267 267 266 266 266 266 265 266 266 266 266 266 266 266 266 266 266 267 267 267 267 267 267 268 268 269 272 278 279 278 278 278 277 275 274 274 274 274 274 275 276 276
266 266 265 265 265 265 265 265 265 265 265 265 266 266 266 266 266 266 266 267 267 267 267 267 268 269 275 279 279 280 279 278 276 275 275 274 274 274 274 275 275 275
266 265 265 265 265 265 265 265 265 265 265 265 265 265 266 266 266 266 266 267 267 267 267 267 268 272 277 278 279 280 280 278 276 275 275 274 274 274 275 275 274 274
265 265 265 265 265 265 265 265 265 265 265 265 265 265 266 266 266 266 266 267 267 266 267 267 267 272 277 278 279 279 280 279 276 276 275 274 274 275 275 274 274 273
265 265 265 265 265 265 265 265 264 264 265 265 265 265 265 265 266 266 266 266 266 266 267 267 268 273 277 278 278 279 280 279 276 276 275 275 274 275 275 274 273 273
265 265 265 265 265 264 264 264 264 264 264 264 264 264 264 265 265 265 266 266 266 267 267 267 268 275 277 278 278 279 280 278 276 275 275 275 275 275 275 274 273 272
265 265 264 264 264 264 264 264 264 264 263 264 264 264 265 265 265 265 265 265 266 267 267 267 268 275 276 277 278 279 279 276 276 275 274 274 274 274 274 273 273 272
265 264 264 264 264 263 263 263 263 263 263 264 263 263 264 264 264 264 265 265 266 266 267 267 268 272 276 277 278 279 278 276 275 274 274 274 274 274 272 272 271 272
265 264 264 264 263 263 263 263 263 263 263 263 262 263 263 263 263 264 265 266 266 266 267 267 268 271 275 277 278 278 278 276 275 274 273 273 273 273 272 271 271 273
265 264 264 263 262 263 262 262 262 262 261 262 262 262 262 262 263 263 264 265 266 267 268 268 268 270 274 276 277 278 277 276 275 274 273 273 272 271 271 270 270 272
264 264 263 262 262 262 261 261 260 260 261 261 261 261 261 261 262 263 265 265 267 267 268 268 268 269 271 276 277 278 279 276 275 274 272 272 271 270 269 269 270 271
Wind_Speed
4 3 3 3 3 4 4 5 4 5 5 5 5 5 6 6 6 7 6 6 6 6 6 6 5 5 6 5 5 5 5 5 5 5 5 6 6 6 6 6 7 6
4 4 4 3 3 4 3 3 4 4 5 5 5 5 5 5 5 6 6 6 5 6 5 5 5 6 6 5 6 6 5 5 6 4 6 8 6 6 6 7 7 6
4 4 4 5 5 5 4 4 3 4 4 4 4 5 5 5 5 6 5 6 6 6 5 5 5 6 6 6 6 5 6 6 6 6 6 7 6 6 6 6 5 7
3 3 4 4 4 5 4 4 4 4 4 5 5 5 5 6 5 6 5 7 5 6 5 5 5 6 6 6 6 6 6 6 5 6 7 7 7 6 7 6 6 6
4 4 3 3 3 3 3 4 5 5 5 5 5 5 5 5 5 5 6 6 5 5 5 6 5 5 6 6 5 6 6 6 7 6 6 7 7 7 7 6 7 8
3 2 3 3 4 4 4 5 5 5 6 5 6 5 5 5 5 6 6 6 6 5 5 5 6 5 5 5 6 5 5 6 7 6 7 7 7 7 6 6 8 8
4 3 3 3 3 4 4 4 4 6 5 5 5 5 6 6 6 6 6 6 6 6 6 6 6 6 5 5 5 6 6 7 8 7 7 8 7 8 8 7 8 8
4 3 3 3 3 4 5 5 5 5 5 5 5 5 5 6 6 6 6 6 6 6 6 5 6 6 6 5 6 6 7 5 7 8 7 8 8 8 8 7 7 8
3 3 4 4 4 5 5 5 5 5 5 5 6 6 5 5 6 6 6 6 6 6 5 6 6 6 6 6 6 7 8 8 8 8 8 9 9 8 8 8 8 8
3 3 4 5 5 5 6 5 5 5 5 5 6 5 6 6 5 6 6 6 6 6 6 6 6 6 7 7 7 8 8 9 10 9 8 9 8 9 8 7 8 10
3 3 4 5 5 5 6 6 6 5 5 6 6 6 6 6 6 6 6 6 6 6 7 7 7 7 7 8 8 8 9 9 10 9 8 8 7 6 8 8 9 9
3 4 5 5 6 5 6 6 5 5 6 5 6 6 6 6 6 6 6 7 6 7 6 7 7 7 8 8 9 9 9 9 10 9 6 5 8 8 7 8 9 10
4 4 4 5 5 5 5 5 5 6 6 6 6 6 6 6 6 6 6 6 7 6 6 7 7 7 8 9 9 10 9 8 10 7 7 7 7 8 8 9 10 10
3 3 4 4 4 4 5 5 5 5 5 5 4 5 5 6 6 7 6 6 6 6 6 6 7 7 8 9 9 8 9 11 9 7 8 8 7 9 9 10 11 11
2 3 3 3 4 4 5 5 5 4 4 4 4 4 4 5 6 6 6 6 5 5 6 6 6 6 6 8 10 12 10 11 8 7 9 10 10 10 10 11 11 10
2 2 2 3 3 4 4 4 4 5 5 5 4 4 4 5 5 5 5 6 7 6 5 5 5 4 10 17 15 11 10 9 6 7 9 9 10 10 11 11 11 10
2 2 2 2 3 3 4 4 5 4 5 5 5 5 5 6 5 6 6 5 6 6 7 6 6 6 15 17 17 19 12 7 5 9 11 10 10 11 11 11 11 11
2 2 2 2 3 3 4 4 4 4 5 5 6 7 6 5 5 6 6 6 5 5 5 6 6 11 16 17 18 18 17 9 7 9 9 10 10 10 9 10 11 11
2 2 2 2 2 3 3 4 4 4 5 6 6 6 5 6 6 7 7 7 6 7 7 6 5 12 16 18 18 18 19 13 8 9 10 10 10 10 9 9 10 10
2 2 1 2 2 3 3 4 4 4 4 4 5 6 6 6 6 7 7 7 7 7 7 6 6 12 18 18 18 19 19 14 7 10 9 9 10 9 9 10 10 10
2 2 1 1 2 2 3 3 4 5 5 5 4 5 6 6 7 8 7 7 7 6 6 6 6 16 17 18 18 19 19 13 7 9 9 9 8 8 9 10 10 11
2 2 1 1 2 2 2 3 3 4 5 6 5 4 4 4 4 5 7 8 8 7 7 8 7 16 18 19 20 20 19 10 8 9 9 9 9 10 10 9 10 10
1 2 1 1 2 2 2 3 3 4 4 5 5 5 5 5 4 6 6 7 8 7 8 8 8 14 20 20 20 22 15 7 9 9 9 10 10 9 7 8 8 9
1 2 2 1 1 1 3 3 3 3 4 4 4 6 6 5 5 6 6 6 7 7 7 8 8 12 20 20 22 22 18 9 8 8 9 10 10 9 8 7 9 14
1 1 1 1 1 2 2 4 3 4 4 4 4 4 5 5 5 5 6 6 5 6 8 7 7 10 17 20 22 21 17 9 8 8 9 10 10 9 8 8 8 8
2 2 1 0 2 1 2 2 4 4 4 4 4 4 5 5 5 4 6 6 6 6 6 6 7 7 11 21 20 20 21 12 7 9 11 11 10 9 10 9 8 7
Wind_Direction
350 340 356 351 346 1 351 348 346 343 344 344 342 338 335 333 340 343 339 334 344 343 334 336 333 332 335 332 332 328 322 323 320 315 316 323 317 316 310 307 303 297
353 356 355 348 351 355 351 345 343 344 342 342 338 333 328 336 340 340 334 329 341 333 331 332 334 333 331 334 332 328 323 323 318 320 318 317 313 302 297 302 303 300
353 352 349 353 348 347 346 348 350 341 345 339 333 337 332 339 340 334 328 335 338 335 332 333 333 331 329 329 329 325 320 318 317 319 314 307 303 308 307 306 301 300
350 346 342 339 343 345 343 352 350 348 348 345 346 338 343 339 336 330 327 341 335 334 331 332 333 328 328 327 327 324 318 311 306 308 309 307 308 307 307 302 299 302
340 341 338 337 339 339 347 356 353 352 351 341 334 340 342 336 333 334 335 337 338 332 333 334 328 329 329 325 324 318 318 311 312 306 305 301 300 304 298 301 298 298
340 330 331 338 342 347 359 1 353 352 346 342 346 340 340 337 334 338 338 337 337 330 332 333 328 327 329 323 320 311 307 303 300 292 294 295 293 290 293 293 294 289
342 338 338 340 348 355 6 357 358 358 341 342 338 343 342 340 341 338 337 334 330 333 334 331 331 329 327 323 314 310 306 305 303 292 293 293 290 289 289 292 291 293
342 334 334 347 357 360 6 360 360 353 345 346 347 344 342 339 339 338 335 330 331 331 329 329 327 327 320 317 310 301 297 295 293 294 295 292 291 292 298 299 296 294
336 341 342 356 4 4 4 360 0 350 350 346 350 344 342 342 336 338 332 330 328 329 331 330 331 327 321 313 300 301 302 299 292 296 295 294 300 303 302 300 297 305
345 338 349 1 8 4 0 359 358 352 349 351 350 344 344 338 337 337 331 329 327 329 333 330 332 327 317 310 300 302 300 295 292 294 291 289 299 305 302 308 321 322
350 350 357 4 8 0 359 359 358 353 354 353 347 344 341 332 331 332 326 329 331 330 330 332 330 321 310 306 301 296 299 291 283 281 291 295 290 292 322 328 321 321
355 359 2 4 1 359 356 359 354 354 351 348 349 339 340 334 329 329 330 326 324 324 321 324 322 318 311 301 300 293 292 289 278 273 275 317 338 331 323 325 328 323
4 3 359 359 1 355 351 354 353 352 352 348 343 340 337 334 330 328 326 324 322 322 318 322 318 311 302 295 291 294 286 295 322 352 349 331 333 331 331 332 325 322
9 358 356 358 359 353 350 352 349 347 344 338 332 336 335 331 329 323 320 320 319 319 315 314 313 311 306 299 291 295 329 321 333 351 339 340 331 333 333 328 327 320
0 3 349 352 3 355 348 347 343 337 332 330 330 331 327 321 317 316 316 317 315 314 315 313 311 307 304 305 321 341 335 326 344 343 344 337 335 335 332 328 322 314
357 351 344 353 4 355 343 341 339 333 332 330 330 327 322 319 317 314 314 315 319 319 318 316 312 303 307 330 346 340 333 326 342 337 343 332 335 334 328 327 329 331
349 338 345 1 358 352 341 341 338 332 331 330 330 333 332 329 323 326 327 322 319 320 323 321 318 302 327 346 344 345 339 334 342 341 337 337 335 331 323 329 334 335
331 337 359 5 357 355 344 331 331 332 336 333 334 341 338 329 333 330 322 323 321 317 315 316 313 320 339 346 346 345 345 351 353 335 338 335 334 326 328 331 335 336
330 342 358 5 358 351 338 333 333 335 339 338 339 333 325 340 335 331 328 326 324 324 324 321 316 323 346 349 348 347 346 356 347 333 338 336 330 327 326 334 337 335
321 336 356 358 352 347 342 336 338 338 328 322 324 334 338 334 333 330 326 325 325 322 318 316 317 336 351 350 350 348 348 356 333 335 327 326 321 324 336 339 339 337
317 332 338 347 357 345 342 336 331 329 333 338 331 330 330 336 335 334 328 321 320 319 316 321 316 344 352 352 352 351 354 352 341 337 330 327 326 334 339 339 343 338
300 307 316 322 340 322 312 322 327 330 326 332 322 312 321 324 327 324 322 321 320 320 325 330 327 348 353 353 353 352 356 352 345 339 335 334 338 342 342 344 343 334
276 289 296 322 334 324 332 330 326 319 324 335 320 316 317 326 331 326 316 314 318 322 330 329 330 343 352 353 354 353 355 350 348 345 339 338 340 342 345 343 338 327
246 267 286 318 326 325 330 321 316 314 316 332 320 322 323 323 325 319 314 312 312 318 324 323 324 335 348 352 354 353 355 351 345 339 339 342 340 341 342 338 332 335
229 243 269 292 300 308 337 318 322 318 306 309 312 312 306 308 313 313 310 309 305 306 306 315 322 331 343 351 352 351 353 351 347 335 341 344 344 338 338 336 329 336
211 233 247 274 287 320 318 304 310 309 319 324 317 323 315 316 309 309 314 312 311 314 316 320 322 329 341 349 351 350 353 355 345 344 346 344 345 340 337 335 333 332